EW5806 Weather Reports


time (UTC)temp
F
wind
direction
speed
knots
gust
knots
rain 1hr
in
rain 24hr
in
rain mn
in
humidity
%
barometer
mb
20260508121553 67 23 2.6 4.3 0.00 0.25 0.11 66 1012.0
20260508120609 67 0 1.7 4.3 0.00 0.25 0.11 67 1012.2
20260508115553 66 293 4.3 7.8 0.00 0.25 0.11 68 1012.2
20260508114609 66 338 4.3 6.1 0.00 0.25 0.11 68 1012.3
20260508113554 67 113 3.5 6.1 0.00 0.25 0.11 64 1012.5
20260508112610 68 68 1.7 3.5 0.00 0.25 0.11 67 1012.5
20260508111553 66 225 1.7 1.7 0.00 0.25 0.11 69 1012.5
20260508110609 65 113 1.7 5.2 0.00 0.25 0.11 70 1012.6
20260508105552 65 270 0.9 1.7 0.00 0.25 0.11 70 1012.7
20260508104610 64 135 0.9 1.7 0.00 0.25 0.11 70 1012.7
20260508103552 64 338 1.7 3.5 0.00 0.25 0.11 72 1012.8
20260508102609 64 338 1.7 3.5 0.00 0.25 0.11 79 1012.9
20260508101552 62 225 0.9 1.7 0.01 0.25 0.11 86 1012.9
20260508100610 60 135 3.5 4.3 0.02 0.25 0.11 89 1012.9
20260508094610 59 270 1.7 3.5 0.05 0.25 0.11 91 1012.9
20260508093552 58 225 0.9 1.7 0.05 0.25 0.11 91 1013.0
20260508092610 59 180 1.7 3.5 0.04 0.24 0.09 91 1013.0
20260508091552 59 203 1.7 1.7 0.02 0.22 0.08 91 1013.0
20260508090610 59 203 0.9 1.7 0.01 0.21 0.07 91 1013.0
20260508085552 58 180 1.7 3.5 0.01 0.20 0.06 91 1013.1
20260508084610 58 135 2.6 4.3 0.01 0.20 0.06 91 1013.0
20260508083553 58 158 1.7 3.5 0.02 0.20 0.06 91 1012.9
20260508082610 58 135 1.7 3.5 0.02 0.20 0.06 91 1012.9
20260508081552 58 203 1.7 3.5 0.02 0.20 0.06 91 1012.9
20260508080609 58 225 4.3 5.2 0.02 0.19 0.05 91 1012.8
20260508075634 58 135 1.7 3.5 0.02 0.19 0.05 91 1013.1
20260508074610 59 180 1.7 1.7 0.02 0.18 0.04 91 1013.2
20260508073553 58 113 1.7 1.7 0.02 0.18 0.04 90 1013.3
20260508072610 58 225 1.7 3.5 0.04 0.18 0.04 90 1013.1
20260508070609 58 158 1.7 1.7 0.02 0.17 0.02 88 1013.0
20260508065553 58 113 1.7 3.5 0.01 0.15 0.01 87 1012.9
20260508064610 58 113 3.5 4.3 0.01 0.15 0.01 85 1012.6
20260508063553 58 113 3.5 5.2 0.00 0.14 0.00 84 1012.0
20260508062610 58 135 2.6 5.2 0.00 0.14 0.00 84 1011.7
20260508061634 58 113 3.5 5.2 0.00 0.14 0.00 84 1011.5
20260508055553 58 180 4.3 6.1 0.00 0.14 0.00 84 1011.1
20260508054611 58 180 4.3 7.0 0.00 0.14 0.00 83 1011.0
20260508053553 58 180 4.3 5.2 0.00 0.14 0.00 83 1011.1
20260508052611 58 180 4.3 7.0 0.00 0.14 0.00 84 1011.0
20260508051552 57 158 1.7 3.5 0.00 0.14 0.00 85 1011.2
20260508045554 57 158 1.7 3.5 0.00 0.14 0.00 84 1010.9
20260508044609 58 158 2.6 4.3 0.00 0.14 0.00 84 1011.1
20260508043553 58 180 3.5 4.3 0.00 0.14 0.00 84 1010.9
20260508042609 58 270 4.3 7.0 0.00 0.14 0.00 84 1011.0
20260508041554 58 135 3.5 4.3 0.00 0.14 0.00 84 1010.9
20260508040610 58 225 4.3 6.1 0.00 0.14 0.00 84 1011.1
20260508035553 58 90 4.3 6.1 0.00 0.14 0.00 84 1011.1
20260508034610 58 158 4.3 5.2 0.00 0.14 0.00 84 1011.1
20260508033554 58 158 4.3 6.1 0.00 0.14 0.00 84 1011.1
20260508032610 58 270 2.6 7.0 0.00 0.14 0.00 83 1011.2
20260508031553 58 203 3.5 5.2 0.00 0.14 0.00 83 1011.3
20260508024610 59 203 1.7 4.3 0.00 0.14 0.00 81 1011.2
20260508021553 58 248 1.7 1.7 0.00 0.14 0.00 83 1011.4
20260508020609 58 225 1.7 1.7 0.00 0.14 0.00 83 1011.7
20260508015552 58 158 1.7 3.5 0.00 0.14 0.00 83 1011.8
20260508014609 58 135 1.7 1.7 0.00 0.14 0.00 83 1011.5
20260508013552 58 135 3.5 5.2 0.00 0.14 0.00 83 1011.4
20260508012609 58 180 4.3 6.1 0.00 0.14 0.00 83 1011.7
20260508011552 58 158 4.3 5.2 0.00 0.14 0.00 84 1011.7
20260508005554 59 158 1.7 3.5 0.00 0.14 0.00 84 1012.0
20260508004609 59 135 1.7 1.7 0.00 0.14 0.00 83 1012.0
20260508003553 59 225 3.5 5.2 0.00 0.14 0.00 83 1011.9
20260508002609 60 180 1.7 4.3 0.00 0.14 0.00 83 1012.0
20260508000608 60 180 1.7 4.3 0.00 0.14 0.00 82 1012.2
20260507234610 60 203 1.7 3.5 0.14 0.14 0.14 82 1012.3
20260507232612 60 135 1.7 1.7 0.14 0.14 0.14 82 1012.4
20260507231554 60 135 1.7 1.7 0.14 0.14 0.14 82 1012.5
20260507230609 60 158 1.7 1.7 0.14 0.14 0.14 83 1012.7
20260507225553 61 158 0.9 1.7 0.00 0.00 0.00 82 1012.7
20260507224611 60 135 1.7 3.5 0.00 0.14 0.14 82 1012.7
20260507223553 60 113 2.6 4.3 0.00 0.14 0.14 82 1012.6
20260507222611 60 135 1.7 3.5 0.00 0.14 0.14 82 1012.5
20260507220611 60 113 2.6 3.5 0.00 0.14 0.14 81 1012.4
20260507215552 61 113 1.7 3.5 0.00 0.00 0.00 81 1012.3
20260507214611 61 203 1.7 1.7 0.00 0.14 0.14 80 1012.2
20260507213553 61 135 1.7 3.5 0.00 0.14 0.14 79 1012.5
20260507212616 61 135 0.9 1.7 0.00 0.14 0.14 79 1012.5
20260507211553 62 180 1.7 1.7 0.00 0.14 0.14 78 1012.3
20260507210610 62 135 0.0 1.7 0.00 0.14 0.14 77 1012.4
20260507205555 63 135 0.0 0.0 0.00 0.14 0.14 76 1012.3
20260507204609 62 158 0.9 1.7 0.00 0.14 0.14 77 1012.2
20260507203554 62 135 1.7 1.7 0.00 0.14 0.14 78 1012.1
20260507202609 62 158 0.9 1.7 0.00 0.14 0.14 78 1011.8
20260507201554 63 248 0.9 1.7 0.00 0.14 0.14 76 1011.7
20260507200609 64 248 0.9 1.7 0.00 0.14 0.14 74 1011.6
20260507195554 64 158 0.0 1.7 0.00 0.14 0.14 74 1011.3
20260507194609 64 315 0.9 1.7 0.00 0.14 0.14 73 1011.1
20260507193554 64 248 1.7 1.7 0.00 0.14 0.14 74 1011.0
20260507192609 65 203 0.9 1.7 0.00 0.14 0.14 73 1010.9
20260507191554 65 270 1.7 4.3 0.00 0.14 0.14 73 1010.8
20260507185553 65 338 1.7 3.5 0.00 0.14 0.14 72 1010.5
20260507184609 65 293 1.7 4.3 0.00 0.14 0.14 71 1010.4
20260507183554 65 293 1.7 3.5 0.00 0.14 0.14 69 1010.2
20260507182609 65 315 1.7 5.2 0.00 0.14 0.14 68 1010.1
20260507181553 66 338 2.6 5.2 0.00 0.14 0.14 67 1010.0
20260507180609 66 315 3.5 4.3 0.00 0.14 0.14 69 1009.9
20260507175555 65 293 4.3 6.1 0.00 0.14 0.14 65 1009.7
20260507174610 66 270 2.6 5.2 0.00 0.14 0.14 67 1009.6
20260507173554 67 180 2.6 4.3 0.00 0.14 0.14 66 1009.6
20260507171553 68 203 3.5 6.1 0.00 0.14 0.14 66 1009.7
20260507170609 68 248 3.5 6.1 0.00 0.14 0.14 66 1009.6
20260507165552 68 293 4.3 7.0 0.00 0.14 0.14 65 1009.4
20260507164610 68 248 4.3 7.0 0.00 0.14 0.14 66 1009.3
20260507163555 69 158 2.6 5.2 0.00 0.14 0.14 68 1009.3
20260507162609 68 225 3.5 6.1 0.00 0.14 0.14 69 1009.2
20260507161555 68 225 2.6 4.3 0.00 0.14 0.14 70 1009.2
20260507155554 65 203 4.3 7.0 0.08 0.14 0.14 79 1009.3
20260507153554 63 135 4.3 7.8 0.12 0.14 0.14 86 1009.4
20260507152609 61 135 5.2 9.6 0.13 0.14 0.14 88 1009.5
20260507150609 61 135 4.3 7.0 0.06 0.06 0.06 87 1010.1
20260507145552 63 0 7.0 12.2 0.04 0.04 0.04 83 1010.1
20260507143553 68 270 0.0 1.7 0.01 0.01 0.01 73 1010.0
20260507142610 67 293 1.7 3.5 0.00 0.00 0.00 70 1010.1
20260507140610 66 293 1.7 3.5 0.00 0.00 0.00 71 1010.0
20260507134610 67 293 1.7 3.5 0.00 0.00 0.00 71 1009.7
20260507133552 67 0 1.7 4.3 0.00 0.00 0.00 70 1009.8
20260507132610 68 135 2.6 5.2 0.00 0.00 0.00 70 1009.8
20260507131553 67 158 6.1 7.8 0.00 0.00 0.00 70 1009.7
20260507130611 67 68 2.6 5.2 0.00 0.00 0.00 68 1009.7
20260507123555 68 293 4.3 6.1 0.00 0.00 0.00 71 1009.8
20260507122611 68 135 4.3 7.8 0.00 0.00 0.00 71 1009.8